Starlink 11236

operational
NORAD ID: 61062 Int'l Des: 2024-164 Owner: SPXS Country: US Constellation: starlink
LEOCIRCULAR

About Starlink 11236

Description loading...

Live Position

Loading 3D Globe...

Upcoming Passes

Altitude History

Altitude vs Time

uPlot chart will show altitude changes over time

Two-Line Element Set

1 61062U 24164N 25307.47009164 .00000093 00000-0 56301-5 0 9992
2 61062 53.1593 213.5570 0001091 110.8901 249.2234 15.69705283 65594
Epoch: Nov 3, 2025 • Age: 27 hours

Current Status

Altitude 374.3 km
Velocity 7.68 km/s
Sub-Earth Point -42.55°S, 173.09°E
Launch Date Sep 13, 2024
Age 1.1 years
Type internet

Technical Details

Classification Payload
Mass 960.00 kg
Dry Mass 910.00 kg
Total Mass 960.00 kg
Length 0.30 m
Diameter 4.10 m
Span 29.00 m
Shape Box + pan
Manufacturer SPXS
Bus Type Starlink V2MD
Phase Status In Orbit
Owner/State SPXS/US

Large Constellations

Loading constellations...